DW5310 Weather Reports


time (UTC)temp
C
wind
direction
speed
KPH
gust
KPH
rain 1hr
cm
rain 24hr
cm
rain mn
cm
humidity
%
barometer
mb
20260505022004 20 237 0.0 0.0 0.00 0.00 0.00 65 1009.5
20260505021505 20 224 0.0 0.0 0.00 0.00 0.00 65 1009.5
20260505021004 20 216 0.0 0.0 0.00 0.00 0.00 65 1009.5
20260505015504 20 224 0.0 4.8 0.00 0.00 0.00 64 1009.5
20260505014504 20 193 0.0 11.3 0.00 0.00 0.00 63 1010.5
20260505013004 20 150 3.2 14.5 0.00 0.00 0.00 63 1010.5
20260505012504 20 151 0.0 11.3 0.00 0.00 0.00 63 1010.5
20260505012004 20 242 0.0 8.0 0.00 0.00 0.00 63 1010.5
20260505011504 20 191 4.8 8.0 0.00 0.00 0.00 63 1010.5
20260505011004 20 226 1.6 11.3 0.00 0.00 0.00 62 1010.5
20260505010504 21 206 1.6 11.3 0.00 0.00 0.00 62 1010.5
20260505005504 21 140 1.6 9.7 0.00 0.00 0.00 62 1010.5
20260505005004 21 182 1.6 12.9 0.00 0.00 0.00 62 1010.5
20260505004504 21 165 0.0 12.9 0.00 0.00 0.00 61 1010.5
20260505003504 21 221 1.6 12.9 0.00 0.00 0.00 61 1010.5
20260505002505 21 170 1.6 4.8 0.00 0.00 0.00 60 1010.5
20260505001505 21 203 1.6 12.9 0.00 0.00 0.00 61 1010.5
20260505001004 21 151 1.6 8.0 0.00 0.00 0.00 61 1010.5
20260505000504 21 136 0.0 3.2 0.00 0.00 0.00 60 1010.5
20260505000004 21 258 0.0 8.0 0.00 0.00 0.00 60 1010.5
20260504235505 21 192 0.0 9.7 0.00 0.00 0.00 60 1010.5
20260504235004 21 136 1.6 12.9 0.00 0.00 0.00 59 1010.5
20260504234504 21 144 4.8 12.9 0.00 0.00 0.00 60 1010.5
20260504234004 21 299 0.0 8.0 0.00 0.00 0.00 60 1010.5
20260504233504 21 220 0.0 12.9 0.00 0.00 0.00 59 1010.5
20260504233004 21 178 1.6 12.9 0.00 0.00 0.00 59 1010.5
20260504232504 21 193 1.6 12.9 0.00 0.00 0.00 59 1010.5
20260504232004 21 222 1.6 12.9 0.00 0.00 0.00 59 1010.5
20260504231504 21 179 1.6 12.9 0.00 0.00 0.00 59 1010.5
20260504231004 21 136 6.4 12.9 0.00 0.00 0.00 59 1010.5
20260504230504 21 143 4.8 12.9 0.00 0.00 0.00 59 1010.5
20260504230004 21 221 0.0 9.7 0.00 0.00 0.00 59 1010.5
20260504225504 21 179 1.6 9.7 0.00 0.00 0.00 59 1010.5
20260504225004 21 123 3.2 9.7 0.00 0.00 0.00 59 1010.5
20260504224504 21 187 0.0 9.7 0.00 0.00 0.00 59 1010.5
20260504224004 21 222 0.0 11.3 0.00 0.00 0.00 59 1010.5
20260504223504 21 111 3.2 14.5 0.00 0.00 0.00 60 1010.5
20260504223004 21 188 4.8 14.5 0.00 0.00 0.00 60 1010.5
20260504222504 21 242 0.0 3.2 0.00 0.00 0.00 60 1010.5
20260504222005 21 257 0.0 3.2 0.00 0.00 0.00 60 1010.5
20260504221504 21 224 0.0 11.3 0.00 0.00 0.00 61 1010.5
20260504221004 20 236 1.6 11.3 0.00 0.00 0.00 62 1010.5
20260504220504 20 207 0.0 11.3 0.00 0.00 0.00 61 1010.5
20260504215504 20 198 0.0 12.9 0.00 0.00 0.00 61 1011.5
20260504215004 20 204 0.0 9.7 0.00 0.00 0.00 62 1011.5
20260504214504 20 215 1.6 3.2 0.00 0.00 0.00 64 1011.5
20260504214004 20 215 0.0 11.3 0.00 0.00 0.00 62 1011.5
20260504213503 20 222 3.2 12.9 0.00 0.00 0.00 63 1011.5
20260504212504 20 176 1.6 8.0 0.00 0.00 0.00 65 1011.5
20260504212004 19 257 0.0 3.2 0.00 0.00 0.00 64 1011.5
20260504211504 20 203 0.0 3.2 0.00 0.00 0.00 65 1012.5
20260504211004 19 211 0.0 3.2 0.00 0.00 0.00 67 1012.5
20260504210504 18 246 0.0 11.3 0.00 0.00 0.00 66 1012.5
20260504210004 18 155 0.0 11.3 0.00 0.00 0.00 69 1012.5
20260504205004 18 159 6.4 14.5 0.00 0.00 0.00 67 1012.5
20260504204503 18 198 3.2 19.3 0.00 0.00 0.00 67 1012.5
20260504203004 18 139 4.8 19.3 0.00 0.00 0.00 68 1012.5
20260504202505 18 216 4.8 19.3 0.00 0.00 0.00 69 1012.5
20260504202003 18 219 1.6 8.0 0.00 0.00 0.00 71 1012.5
20260504201504 17 250 0.0 9.7 0.00 0.00 0.00 70 1012.5
20260504200503 17 249 0.0 11.3 0.00 0.00 0.00 71 1012.5
20260504200004 17 191 1.6 11.3 0.00 0.00 0.00 71 1012.5
20260504195504 17 183 1.6 12.9 0.00 0.00 0.00 71 1012.5
20260504195004 17 267 4.8 12.9 0.00 0.00 0.00 72 1012.5
20260504194503 17 218 1.6 11.3 0.00 0.00 0.00 72 1012.5
20260504194004 17 218 0.0 14.5 0.00 0.00 0.00 73 1012.5
20260504193503 16 228 0.0 19.3 0.00 0.00 0.00 73 1012.5
20260504193007 16 181 9.7 19.3 0.00 0.00 0.00 73 1012.5
20260504192006 16 139 4.8 12.9 0.00 0.00 0.00 74 1012.5
20260504191507 16 290 0.0 16.1 0.00 0.00 0.00 74 1012.5
20260504191007 16 148 8.0 16.1 0.00 0.00 0.00 75 1012.5
20260504190007 15 221 3.2 12.9 0.00 0.00 0.00 75 1012.5
20260504185507 15 180 1.6 12.9 0.00 0.00 0.00 76 1012.5
20260504185007 15 215 1.6 12.9 0.00 0.00 0.00 76 1012.5
20260504184507 15 207 0.0 11.3 0.00 0.00 0.00 78 1012.5
20260504184007 15 188 1.6 11.3 0.00 0.00 0.00 78 1012.5
20260504183507 15 195 4.8 16.1 0.00 0.00 0.00 78 1012.5
20260504182507 14 105 0.0 9.7 0.00 0.00 0.00 79 1012.5
20260504182006 14 188 3.2 9.7 0.00 0.00 0.00 79 1012.5
20260504181506 14 242 1.6 9.7 0.00 0.00 0.00 79 1011.5
20260504180506 14 252 0.0 4.8 0.00 0.00 0.00 80 1011.5
20260504180006 13 249 0.0 12.9 0.00 0.00 0.00 80 1012.5
20260504175506 13 217 3.2 12.9 0.00 0.00 0.00 80 1012.5
20260504175006 13 214 1.6 19.3 0.00 0.00 0.00 81 1012.5
20260504174507 13 204 4.8 19.3 0.00 0.00 0.00 81 1012.5
20260504174006 13 197 1.6 9.7 0.00 0.00 0.00 81 1012.5
20260504173506 13 215 0.0 9.7 0.00 0.00 0.00 82 1012.5
20260504173007 13 149 0.0 12.9 0.00 0.00 0.00 82 1012.5
20260504172506 13 219 0.0 12.9 0.00 0.00 0.00 82 1012.5
20260504172008 13 161 3.2 19.3 0.00 0.00 0.00 83 1012.5
20260504171507 13 191 3.2 19.3 0.00 0.00 0.00 82 1011.5
20260504171007 13 160 3.2 9.7 0.00 0.00 0.00 83 1011.5
20260504170506 13 222 1.6 9.7 0.00 0.00 0.00 83 1011.5
20260504151006 12 167 3.2 19.3 0.00 0.00 0.00 86 1012.5
20260504150506 11 230 4.8 11.3 0.00 0.00 0.00 86 1012.5
20260504141006 11 225 1.6 9.7 0.00 0.00 0.00 88 1011.5
20260504130506 11 206 4.8 12.9 0.00 0.00 0.00 87 1010.5
20260504110506 14 222 8.0 14.5 0.00 0.00 0.00 72 1009.5
20260504081505 20 305 0.0 0.0 0.00 0.00 0.00 43 1008.5
20260504081006 20 305 0.0 0.0 0.00 0.00 0.00 43 1008.5
20260504050505 23 260 0.0 0.0 0.00 0.00 0.00 39 1008.5
20260504050005 23 260 0.0 0.0 0.00 0.00 0.00 39 1008.5
20260504045505 23 282 0.0 0.0 0.00 0.00 0.00 39 1008.5
20260504045004 23 305 0.0 0.0 0.00 0.00 0.00 39 1008.5
20260504044005 23 256 0.0 0.0 0.00 0.00 0.00 39 1007.5
20260504043505 23 265 0.0 0.0 0.00 0.00 0.00 39 1007.5
20260504043005 23 292 0.0 0.0 0.00 0.00 0.00 39 1007.5
20260504042505 23 260 0.0 0.0 0.00 0.00 0.00 38 1007.5
20260504042005 24 260 0.0 0.0 0.00 0.00 0.00 38 1007.5
20260504041505 24 260 0.0 0.0 0.00 0.00 0.00 38 1007.5
20260504041005 24 238 0.0 0.0 0.00 0.00 0.00 38 1007.5
20260504040505 24 238 0.0 0.0 0.00 0.00 0.00 37 1007.5
20260504040004 24 238 0.0 0.0 0.00 0.00 0.00 37 1007.5
20260504035504 25 238 0.0 0.0 0.00 0.00 0.00 37 1007.5
20260504035006 25 238 0.0 0.0 0.00 0.00 0.00 36 1007.5
20260504034505 25 238 0.0 0.0 0.00 0.00 0.00 36 1006.5
20260504034004 25 238 0.0 0.0 0.00 0.00 0.00 36 1006.5
20260504033505 25 238 0.0 0.0 0.00 0.00 0.00 36 1006.5
20260504033005 25 238 0.0 0.0 0.00 0.00 0.00 36 1006.5
20260504032505 25 238 0.0 0.0 0.00 0.00 0.00 36 1006.5
20260504032005 25 238 0.0 0.0 0.00 0.00 0.00 36 1006.5
20260504031505 26 238 0.0 0.0 0.00 0.00 0.00 35 1006.5
20260504030504 26 238 0.0 0.0 0.00 0.00 0.00 35 1006.5
20260504030005 26 305 0.0 0.0 0.00 0.00 0.00 35 1006.5
20260504025505 26 305 0.0 0.0 0.00 0.00 0.00 35 1006.5
20260504025004 26 300 0.0 0.0 0.00 0.00 0.00 35 1006.5
20260504024006 26 238 0.0 0.0 0.00 0.00 0.00 35 1006.5
20260504023504 27 238 0.0 0.0 0.00 0.00 0.00 34 1006.5
20260504023004 27 305 0.0 0.0 0.00 0.00 0.00 35 1006.5
20260504022505 27 305 0.0 0.0 0.00 0.00 0.00 34 1006.5